OAL463 EIDW-CYYZ

Flight info

Callsign OAL463
Flight time N/A
Altitude 32000
Route INKUR DCT REVNU DCT PIKIL/M085F320 NATB IRLOK/N0490F320 N732B YBC Q910 IMORI Q921 AGLUK Q941 TAMKO Q852 KANUR Q806 TUKIR
Aircraft B77L/H-SDE1E2E3FGHIJ2J3J4J5M1RWXY/LB1D1

Departure

Time N/A
Airport Dublin Airport (EIDW)

Arrival

Time 2026-05-03 20:15
Airport Toronto Pearson International Airport (CYYZ)
Time Latitude Longitude Altitude Speed Heading
2026-05-03 20:15 43.67544 -79.65818 573 ft 23 kts 46°
2026-05-03 20:15 43.67654 -79.65662 579 ft 23 kts 47°
2026-05-03 20:15 43.67762 -79.65503 575 ft 23 kts 46°
2026-05-03 20:15 43.67872 -79.65345 576 ft 23 kts 47°
2026-05-03 20:16 43.67979 -79.65184 571 ft 23 kts 47°
2026-05-03 20:16 43.68088 -79.65026 579 ft 23 kts 46°
2026-05-03 20:16 43.68198 -79.64870 573 ft 23 kts 45°
2026-05-03 20:16 43.68306 -79.64711 581 ft 23 kts 47°
2026-05-03 20:17 43.68415 -79.64551 579 ft 23 kts 46°
2026-05-03 20:17 43.68524 -79.64393 568 ft 23 kts 46°
2026-05-03 20:17 43.68633 -79.64236 574 ft 23 kts 46°
2026-05-03 20:17 43.68744 -79.64081 575 ft 23 kts 45°
2026-05-03 20:18 43.68854 -79.63924 575 ft 23 kts 46°
2026-05-03 20:18 43.68962 -79.63765 576 ft 23 kts 47°
2026-05-03 20:18 43.69011 -79.63582 571 ft 23 kts 129°
2026-05-03 20:18 43.68906 -79.63448 573 ft 18 kts 137°
2026-05-03 20:19 43.68813 -79.63329 573 ft 18 kts 137°
2026-05-03 20:19 43.68721 -79.63209 572 ft 18 kts 136°
2026-05-03 20:19 43.68629 -79.63088 567 ft 18 kts 136°
2026-05-03 20:19 43.68536 -79.62969 574 ft 18 kts 137°
2026-05-03 20:20 43.68442 -79.62850 575 ft 18 kts 137°
2026-05-03 20:20 43.68350 -79.62730 575 ft 18 kts 135°
2026-05-03 20:20 43.68259 -79.62607 577 ft 18 kts 135°
2026-05-03 20:20 43.68236 -79.62460 573 ft 18 kts 56°
2026-05-03 20:21 43.68301 -79.62311 570 ft 18 kts 56°
2026-05-03 20:21 43.68324 -79.62185 574 ft 8 kts 112°
2026-05-03 20:21 43.68320 -79.62172 569 ft 1 kts 112°
2026-05-03 20:21 43.68317 -79.62159 568 ft 1 kts 113°
2026-05-03 20:22 43.68313 -79.62147 571 ft 1 kts 112°
2026-05-03 20:22 43.68309 -79.62134 568 ft 1 kts 112°
2026-05-03 20:22 43.68307 -79.62128 567 ft 0 kts 112°